This is the latest recevied weather packets stored in our database for station/object KD5HIA. If no packets are shown the sender has not sent any weather packets the latest 10 day(s).
| Time | Temp. | Humidity | Pressure | Rain* | Wind** | Luminosity | Snow |
|---|---|---|---|---|---|---|---|
| 1778035817 | 26.67° C | 29% | 1007.8 hPa | 0 mm | - | 0 W/m² | - |
| 1778035217 | 26.11° C | 30% | 1007.6 hPa | 0 mm | - | 0 W/m² | - |
| 1778034617 | 26.67° C | 30% | 1007.5 hPa | 0 mm | - | 0 W/m² | - |
| 1778034016 | 27.22° C | 29% | 1007.4 hPa | 0 mm | - | 0 W/m² | - |
| 1778033416 | 27.22° C | 27% | 1007.4 hPa | 0 mm | - | 0 W/m² | - |
| 1778032817 | 27.78° C | 27% | 1007.2 hPa | 0 mm | - | 0 W/m² | - |
| 1778032217 | 27.78° C | 26% | 1007 hPa | 0 mm | - | 0 W/m² | - |
| 1778031617 | 28.33° C | 25% | 1006.8 hPa | 0 mm | - | 0 W/m² | - |
| 1778031017 | 28.89° C | 25% | 1006.9 hPa | 0 mm | - | 0 W/m² | - |
| 1778030417 | 29.44° C | 25% | 1006.5 hPa | 0 mm | - | 5 W/m² | - |
| 1778029817 | 29.44° C | 27% | 1006.4 hPa | 0 mm | - | 18 W/m² | - |
| 1778029216 | 30° C | 27% | 1006.5 hPa | 0 mm | - | 31 W/m² | - |
| 1778028616 | 30.56° C | 26% | 1006.3 hPa | 0 mm | - | 60 W/m² | - |
| 1778028016 | 30.56° C | 28% | 1006.1 hPa | 0 mm | - | 73 W/m² | - |
| 1778027417 | 31.11° C | 27% | 1006 hPa | 0 mm | - | 85 W/m² | - |
| 1778026817 | 30.56° C | 28% | 1006 hPa | 0 mm | - | 138 W/m² | - |
| 1778026216 | 30.56° C | 28% | 1005.9 hPa | 0 mm | - | 118 W/m² | - |
| 1778025616 | 31.11° C | 27% | 1006 hPa | 0 mm | - | 117 W/m² | - |
| 1778025017 | 31.67° C | 25% | 1005.8 hPa | 0 mm | - | 139 W/m² | - |
| 1778024417 | 32.22° C | 25% | 1005.9 hPa | 0 mm | - | 140 W/m² | - |
| 1778023816 | 32.22° C | 25% | 1006 hPa | 0 mm | - | 210 W/m² | - |
| 1778023217 | 32.22° C | 25% | 1006 hPa | 0 mm | - | 164 W/m² | - |
| 1778022617 | 32.22° C | 24% | 1006 hPa | 0 mm | - | 175 W/m² | - |
| 1778022017 | 32.78° C | 24% | 1006 hPa | 0 mm | - | 253 W/m² | - |
| 1778021417 | 32.78° C | 23% | 1006.2 hPa | 0 mm | - | 249 W/m² | - |
* Rain latest hour (hover to see other rain measurements)
** Current wind speed in m/s (hover to see current wind gust speed)